Location: Bakov nad Jizerou
(50.4784°N, 14.9394°E)
Time: 07:08:05
(UTC+00:00)

FALCON 9 DEB - Pass Details

Date: 16 June 2021
Orbit: 422 x 432 km, 53.0° (Epoch: 28 July)

Event Time Altitude Azimuth Distance (km) Brightness Sun altitude
Rises 22:53:53 0° 269° (W) 2,395 6.9 -16.1°
Reaches altitude 10° 22:56:02 10° 274° (W) 1,527 5.9 -16.1°
Maximum altitude 22:59:24 56° 354° (N) 515 3.8 -16.1°
Drops below altitude 10° 23:02:46 10° 74° (ENE) 1,521 6.1 -16.1°
Sets 23:04:54 0° 78° (ENE) 2,385 7.0 -16.1°
